Find Starlink 35148

NORAD ID: 65844 Int'l Des: 2025-221 Owner: SPXS Country: US Constellation: starlink operational
LEOCIRCULAR

当前视图

正在加载3D地球...

About Starlink 35148

Starlink 35148 (NORAD 65844) is a starlink constellation satellite (v2 mini) launched Sep 29, 2025 by SPXS of US. It operates in LEO, CIRCULAR orbit with a mass of 575.00 kg.

关于 Starlink 35148

正在加载描述...

即将过境

Passes for default location (London). Set your location on the main map for personalized predictions.

高度历史

Loading altitude history...

两行轨道根数

1 65844U 25221X 26194.30887505 .00017306 00000-0 52218-3 0 9995
2 65844 53.1561 222.9155 0001128 89.5217 270.5914 15.34398292 43999
Epoch: Jul 13, 2026 • Age: 29 hours

当前状态

高度 476.8 km
远地点 / 近地点 N/A
速度 7.63 km/s
星下点 -40.99°S, 51.27°E
发射日期 Sep 29, 2025
运行时间 0.7 years
类型 internet

技术详情

分类 Payload
质量 575.00 kg
干质量 530.00 kg
总质量 575.00 kg
长度 0.30 m
直径 4.10 m
跨度 29.00 m
形状 Box + pan
制造商 SPXS
平台类型 Starlink V2MO
阶段状态 In Orbit
所有者/国家 SPXS/US

Most Searched